Theta_e
318 318 317 316 315 314 314 314 314 313 312 312 312 312 312 312 313 318 325 330 334 336 334 335 336 339 339 340 344 342 344 348 351 354 355 351 351 349 354 357 356 355 354 353 355
318 316 317 316 315 314 313 314 314 313 312 312 312 312 312 312 316 324 323 328 333 332 331 334 335 337 338 339 341 344 345 346 346 347 351 353 353 350 358 358 361 358 352 353 352
316 316 317 315 315 314 314 314 314 312 312 312 312 312 312 312 328 327 329 330 330 330 330 333 335 337 340 339 340 343 347 345 346 342 342 349 349 349 359 361 359 359 355 352 353
313 313 314 314 315 314 314 314 314 312 312 312 312 312 312 317 335 332 331 329 330 330 331 336 337 338 340 337 336 340 342 342 346 342 340 348 349 351 357 359 355 353 351 351 353
315 314 314 313 314 314 314 314 314 312 312 312 312 312 314 328 325 329 329 330 329 331 333 337 339 338 338 336 337 337 342 342 347 345 345 349 351 353 357 355 353 352 351 351 351
315 315 314 313 313 314 314 314 314 312 312 312 312 312 327 324 328 330 329 332 331 334 337 337 338 337 337 338 338 338 341 341 342 346 349 352 352 352 354 353 353 352 351 349 350
314 314 314 313 313 313 314 314 314 312 312 312 312 317 325 323 327 326 330 332 337 337 336 338 339 337 337 337 336 337 341 341 341 346 351 349 354 355 352 351 352 351 349 349 351
313 313 313 313 313 313 315 314 313 312 313 313 312 319 323 319 323 324 326 331 333 339 339 341 339 336 337 337 335 336 338 341 347 346 346 344 353 353 351 352 352 350 348 346 347
309 313 313 313 313 313 315 314 312 312 313 313 317 321 321 323 322 324 325 328 334 336 336 337 337 336 337 338 337 336 339 343 345 346 345 347 353 351 350 351 350 349 347 347 345
309 310 313 313 314 313 315 313 313 315 318 316 321 322 324 325 323 323 323 325 330 334 335 335 334 335 336 337 341 343 342 341 342 345 347 348 348 350 350 350 350 348 348 348 347
313 309 311 313 314 313 315 316 320 320 319 319 319 324 321 324 325 322 323 327 329 332 336 335 335 336 336 338 339 340 342 342 342 344 347 349 349 351 350 350 350 348 348 349 347
315 310 310 313 314 314 313 318 322 320 319 321 323 322 321 322 322 321 324 328 330 333 335 336 336 335 337 339 341 340 342 342 339 335 334 348 353 351 350 350 349 349 349 349 348
316 313 310 313 314 317 316 318 317 320 319 321 323 324 322 322 323 321 326 326 329 331 332 335 336 337 336 339 339 335 337 338 339 336 335 338 350 353 350 349 348 348 349 348 349
316 315 311 312 319 318 322 323 322 321 320 322 320 323 321 321 321 324 326 326 328 327 328 332 335 337 338 341 339 334 338 339 340 334 336 334 340 355 350 347 349 347 348 349 350
316 316 312 312 316 318 322 322 322 322 327 325 321 324 319 318 321 320 323 325 327 327 327 328 332 335 336 339 336 339 338 340 339 332 331 333 352 357 343 345 341 338 347 356 348
315 316 313 316 318 320 325 320 322 324 328 324 323 320 318 317 319 321 322 324 327 328 327 328 329 331 335 339 334 337 336 336 334 332 331 333 351 356 347 343 339 338 348 346 345
315 316 312 311 318 323 322 322 324 325 325 323 321 320 318 317 318 320 321 324 327 326 326 327 328 328 333 338 336 337 334 334 336 336 337 339 350 350 348 343 345 344 349 349 347
315 317 316 316 316 319 323 322 328 326 323 324 322 320 319 319 318 320 321 324 326 326 325 326 329 328 331 336 337 336 333 332 340 343 344 342 351 350 343 339 336 339 351 342 339
313 315 321 324 320 319 325 324 326 327 326 326 325 323 320 320 321 319 320 322 326 326 325 326 329 329 331 338 337 339 337 332 333 334 336 347 347 350 351 346 352 353 351 347 345
311 316 321 325 323 323 324 323 323 323 324 325 327 325 323 321 321 319 321 324 325 326 325 326 327 329 330 335 335 335 336 338 335 338 352 355 355 355 355 354 356 355 353 355 356
315 326 329 326 323 324 323 323 323 323 324 324 330 332 325 322 321 321 321 324 325 325 325 324 322 325 332 336 334 333 333 334 332 334 343 356 356 348 349 350 346 353 345 354 355
318 328 327 324 324 323 322 322 319 321 322 324 329 331 331 330 322 322 323 325 326 325 324 324 322 324 329 336 335 333 337 332 334 335 340 345 355 344 345 347 348 357 354 356 354
319 326 328 325 327 324 323 321 321 321 322 324 329 330 329 329 330 325 325 327 326 325 324 324 323 323 330 335 336 332 333 332 331 337 340 346 357 346 349 346 349 346 345 354 349
320 333 331 327 326 326 324 324 323 322 322 324 327 329 329 329 328 331 326 327 328 327 338 329 325 337 340 340 340 338 334 334 334 338 343 352 352 345 347 351 346 345 344 351 349
320 328 334 335 328 327 326 324 325 326 322 323 328 329 329 328 329 331 329 327 328 330 329 328 330 344 339 342 341 341 336 337 336 336 342 346 343 346 340 342 344 343 342 352 347
320 328 328 331 333 336 326 324 325 326 326 324 328 328 328 327 329 331 329 329 329 328 326 328 336 343 341 340 339 341 336 336 337 340 343 344 347 349 349 345 353 352 352 348 345
319 321 326 331 336 335 325 323 323 324 328 325 327 328 329 330 328 327 328 326 325 326 324 326 335 342 343 338 338 338 336 335 343 343 342 348 346 345 351 355 353 352 348 346 344
Wind_Speed
15 15 17 17 17 17 17 15 14 13 12 11 12 15 17 21 23 12 7 8 9 15 17 23 23 25 28 15 9 5 5 7 11 8 5 7 12 11 18 16 5 5 20 23 34
14 16 17 17 18 18 17 15 14 12 11 11 12 14 16 20 20 13 21 15 18 19 20 15 18 22 8 4 1 5 7 6 4 5 4 12 13 10 20 20 20 22 17 29 30
16 16 16 18 19 18 17 15 13 12 11 11 13 14 15 16 5 8 10 18 20 17 16 18 24 17 22 13 5 4 6 8 19 22 19 12 6 12 18 16 17 20 18 19 20
18 18 18 18 19 19 17 15 12 11 10 10 13 14 15 4 1 2 5 19 18 13 14 13 11 10 13 5 7 7 13 8 15 18 6 6 15 15 16 16 18 16 15 14 16
19 19 19 20 20 19 17 15 12 11 10 9 11 14 5 3 8 7 4 10 15 12 13 13 18 13 7 7 9 8 11 9 18 19 13 15 12 11 18 20 18 16 14 20 18
21 20 20 20 20 20 17 14 12 10 9 8 10 12 2 5 8 6 4 8 13 12 14 19 14 10 8 5 6 6 12 11 10 15 18 19 4 9 15 18 17 16 15 17 14
22 21 22 23 22 21 18 14 11 9 9 8 8 8 6 16 6 6 5 13 12 18 14 24 20 8 9 8 7 7 9 10 10 8 9 18 8 13 14 14 14 14 13 13 19
22 22 24 24 23 23 19 15 11 9 8 8 8 2 8 14 13 23 11 12 17 21 25 23 17 9 6 9 3 5 5 5 13 11 7 7 6 16 17 16 13 11 9 8 13
24 23 23 23 24 24 19 14 10 8 8 7 6 4 9 10 13 19 20 14 16 13 16 19 10 6 12 8 6 5 6 6 9 10 10 5 5 15 16 15 13 10 9 9 9
23 24 24 24 23 26 19 9 9 8 6 4 9 6 8 7 14 20 19 17 9 9 11 10 6 6 8 6 6 2 2 6 7 9 12 7 6 16 17 15 14 12 11 10 11
25 25 25 24 24 26 20 4 1 0 6 9 8 7 13 17 14 14 21 18 11 8 8 10 4 9 14 8 5 6 8 13 10 15 15 13 15 19 18 15 15 14 13 12 13
28 28 27 26 25 22 9 4 9 15 7 18 19 21 28 21 7 11 22 9 8 9 9 9 11 14 15 12 11 14 13 6 9 9 5 13 19 20 19 16 17 17 16 17 14
28 28 29 26 24 9 8 14 16 17 5 10 15 9 13 9 5 11 9 9 7 10 9 11 13 16 17 10 7 9 1 1 3 4 3 5 11 15 16 10 15 17 19 17 17
29 29 31 33 6 13 7 13 14 14 4 7 10 15 8 5 6 10 13 9 7 11 13 9 18 18 14 7 7 9 2 1 6 7 6 6 2 4 3 4 10 2 13 4 10
29 30 29 21 16 6 13 17 15 8 4 5 12 13 11 11 5 11 22 12 13 12 8 13 13 13 15 14 9 3 6 7 7 4 3 7 6 2 7 4 5 6 12 25 18
31 31 33 8 13 15 22 18 15 1 7 3 9 10 10 12 17 5 11 14 11 13 11 10 12 12 14 15 9 3 1 4 5 2 3 7 5 3 3 7 4 7 22 23 23
32 32 33 16 7 3 15 7 1 4 10 9 12 15 13 10 16 14 13 15 13 6 10 10 14 12 13 7 3 5 3 3 4 3 6 3 8 7 7 7 8 13 18 19 22
36 33 20 23 20 9 10 1 5 12 14 5 6 13 13 10 11 13 10 11 10 11 6 7 10 9 10 10 7 8 8 5 5 4 4 4 6 1 5 8 9 7 21 22 22
39 17 10 16 9 10 2 5 6 7 7 11 10 12 11 14 9 12 11 12 14 12 10 7 9 10 12 6 6 4 2 9 4 6 1 3 3 3 9 2 7 10 23 19 15
23 10 12 17 11 9 3 8 10 14 20 23 20 7 9 14 14 11 10 13 11 11 13 13 4 11 12 7 5 7 5 3 4 1 5 4 3 4 4 1 4 12 17 13 8
5 4 2 21 18 3 6 6 10 19 20 20 18 8 5 11 11 10 12 8 14 16 15 11 4 19 8 6 8 3 6 5 1 3 5 4 5 5 2 4 7 14 9 17 17
7 3 19 23 4 4 9 7 10 23 23 24 11 8 12 8 10 15 12 13 16 17 13 14 4 7 12 11 13 10 10 8 5 9 1 5 1 7 7 6 13 8 8 7 12
4 5 12 16 4 8 10 18 20 20 21 21 7 8 14 9 6 10 12 12 10 19 10 9 4 6 9 9 12 10 7 5 5 5 3 3 5 3 11 12 16 9 9 2 10
4 3 4 5 8 12 13 12 14 16 19 18 15 7 9 11 8 7 12 7 7 10 6 9 4 4 4 4 5 4 8 7 8 5 2 2 8 9 14 14 17 14 10 7 12
3 3 3 3 9 13 14 14 18 16 12 15 9 8 10 10 13 10 5 7 4 6 2 3 3 3 11 9 5 7 6 10 8 4 5 6 5 8 12 8 22 17 14 16 14
3 5 6 11 15 18 14 15 18 20 14 13 9 11 14 12 13 14 9 6 7 4 8 2 2 3 3 8 14 15 4 3 11 12 10 11 5 5 5 8 17 21 15 14 13
11 12 6 8 9 11 7 14 17 20 21 16 17 16 18 16 18 17 14 6 7 9 8 7 5 4 3 6 7 5 9 5 12 15 20 8 8 8 2 12 10 13 14 14 10
Wind_Direction
351 349 345 343 340 340 337 333 327 323 320 323 325 324 323 323 317 311 252 247 238 283 297 306 294 278 263 264 217 142 53 45 107 106 145 141 88 69 56 132 127 107 132 136 150
354 349 346 342 339 339 337 333 327 320 319 321 323 322 324 330 322 268 243 247 255 277 298 313 312 315 318 174 203 94 97 128 199 92 145 121 117 125 92 100 102 111 123 141 145
354 350 346 343 340 337 337 333 326 319 316 319 321 322 327 335 294 242 225 228 250 263 278 287 282 284 293 278 128 154 134 147 81 65 17 104 134 123 117 113 121 134 150 141 136
359 354 349 344 342 338 338 333 325 317 315 317 321 323 326 321 136 359 207 219 237 258 270 278 279 309 300 102 107 87 114 117 112 108 155 80 82 77 100 118 126 140 158 147 157
355 353 350 349 346 342 337 333 323 313 312 316 322 331 353 242 250 255 221 221 247 249 253 266 278 289 17 124 119 147 119 127 131 140 162 100 90 100 115 124 135 158 164 167 168
352 351 349 345 343 340 335 326 317 308 307 310 321 333 310 255 245 197 216 216 233 234 261 260 272 321 309 335 134 128 147 159 134 140 125 105 139 118 126 134 155 167 173 171 174
347 347 348 345 343 340 333 321 310 302 299 304 320 350 270 242 275 311 195 229 234 242 246 270 310 354 328 305 127 180 183 154 157 135 124 128 105 130 141 148 164 180 189 179 180
346 346 348 346 342 337 329 318 305 294 289 297 312 333 252 262 274 282 284 238 244 243 257 286 311 337 305 308 161 241 138 171 132 120 167 102 176 150 153 163 177 187 148 154 144
344 344 343 341 339 334 327 317 302 292 289 293 316 207 265 292 236 239 260 259 251 255 273 277 294 286 305 301 318 253 195 197 168 154 145 142 157 164 163 174 176 175 148 149 153
345 342 342 339 338 333 327 309 300 292 306 281 268 305 253 232 218 223 235 254 250 230 235 250 268 251 272 262 244 221 315 260 218 173 159 141 186 170 173 178 177 164 167 161 159
345 342 340 336 335 331 330 344 344 312 250 208 209 236 295 223 224 204 218 224 245 259 217 244 229 236 257 258 285 240 187 225 240 174 163 175 175 175 181 185 178 168 173 174 166
346 342 338 332 329 319 307 256 256 330 286 222 248 253 266 270 256 205 215 195 218 241 215 251 239 248 263 273 188 234 217 252 167 154 153 147 175 182 189 191 181 171 179 177 179
344 343 337 331 324 313 253 249 281 309 298 273 222 232 243 247 244 205 183 203 204 239 243 223 244 243 249 259 253 269 226 168 184 145 259 178 187 178 200 181 185 181 185 180 176
342 340 339 336 326 327 272 292 279 268 301 257 189 227 237 233 280 256 204 213 228 216 244 234 243 257 261 234 249 253 107 38 222 141 211 188 132 7 331 124 160 119 198 346 128
338 336 335 337 299 294 297 338 337 317 287 189 175 180 181 191 212 221 232 217 227 237 187 248 245 242 259 253 245 199 46 263 287 227 352 294 86 238 349 360 278 263 99 117 81
331 331 330 348 297 271 322 319 313 286 250 158 130 146 168 206 239 253 207 209 226 245 259 235 246 240 243 262 228 237 75 287 310 22 338 298 99 266 223 209 278 270 115 120 125
325 322 312 284 237 312 326 285 244 239 309 132 165 170 193 189 225 231 214 196 208 212 254 272 251 261 255 226 257 63 26 315 334 348 227 20 62 233 225 240 219 118 125 133 142
323 320 300 265 268 292 310 284 248 256 243 298 196 162 192 197 222 237 202 200 203 234 217 239 272 246 263 226 192 177 188 176 235 202 230 111 147 208 213 266 347 352 155 148 159
325 327 272 280 224 207 270 229 221 232 305 316 305 173 187 220 194 217 228 202 201 215 225 214 249 263 240 194 212 239 281 229 276 310 55 79 82 45 48 150 288 303 151 182 190
324 298 255 227 179 188 217 240 253 273 301 308 302 172 178 207 213 193 211 196 214 221 228 256 308 240 256 194 240 166 229 322 321 237 61 346 48 177 51 278 360 28 21 126 100
302 267 164 164 151 209 227 244 268 266 272 278 297 338 265 189 215 218 222 188 200 223 218 242 196 276 247 180 182 220 249 256 200 174 146 147 282 268 55 10 60 29 50 304 88
304 260 152 146 172 206 237 244 258 279 284 287 279 308 303 306 211 216 225 207 196 205 213 217 202 239 238 190 210 207 206 193 140 289 36 110 270 340 153 115 55 347 320 1 88
293 280 175 177 223 235 245 249 261 271 275 283 267 267 289 301 334 204 224 226 208 194 209 204 244 265 293 243 235 212 209 232 123 80 25 86 119 23 117 125 145 203 258 339 130
279 273 186 202 251 265 273 273 257 253 270 279 288 283 322 310 293 285 210 237 216 176 195 153 219 162 223 110 8 326 185 112 117 92 141 85 134 190 201 152 173 194 180 252 123
241 267 288 259 227 239 262 281 282 277 257 271 296 300 295 299 309 303 219 221 201 145 21 125 180 135 87 85 68 327 342 107 105 148 105 174 123 227 217 152 186 183 212 168 129
287 344 339 291 277 279 238 246 265 280 262 255 240 260 264 268 267 282 296 196 211 154 171 149 226 135 118 131 112 256 273 240 125 131 114 136 151 268 330 97 149 177 152 121 130
349 334 308 282 299 294 228 231 247 263 273 228 236 225 243 250 253 267 275 215 215 159 172 175 158 156 223 191 206 220 229 205 117 139 145 165 212 163 181 105 123 127 124 128 129